| time (UTC) | temp C | wind direction | speed KPH | gust KPH | rain 1hr cm | rain 24hr cm | rain mn cm | humidity % | barometer mb |
| 20260506211600 | 23 | 270 | 0.0 | 0.0 | 0.00 | 0.00 | 0.00 | 56 | 1018.8 |
| 20260506210056 | 22 | 36 | 0.0 | 0.0 | 0.00 | 0.00 | 0.00 | 59 | 1019.0 |
| 20260506204559 | 22 | 323 | 0.0 | 0.0 | 0.00 | 0.03 | 0.00 | 61 | 1019.2 |
| 20260506203053 | 22 | 71 | 0.0 | 0.0 | 0.00 | 0.03 | 0.00 | 59 | 1019.3 |
| 20260506201556 | 22 | 238 | 0.0 | 0.0 | 0.00 | 0.03 | 0.00 | 61 | 1019.6 |
| 20260506200107 | 21 | 55 | 0.0 | 0.0 | 0.00 | 0.03 | 0.00 | 60 | 1019.7 |
| 20260506194558 | 22 | 355 | 0.0 | 0.0 | 0.00 | 0.03 | 0.00 | 60 | 1019.9 |
| 20260506193047 | 22 | 355 | 0.0 | 0.0 | 0.00 | 0.03 | 0.00 | 62 | 1020.0 |
| 20260506191543 | 21 | 319 | 0.0 | 0.0 | 0.00 | 0.03 | 0.00 | 64 | 1020.1 |
| 20260506190140 | 21 | 296 | 0.0 | 0.0 | 0.00 | 0.03 | 0.00 | 65 | 1020.3 |
| 20260506184539 | 21 | 325 | 0.0 | 0.0 | 0.00 | 0.03 | 0.00 | 67 | 1020.4 |
| 20260506183043 | 21 | 239 | 0.0 | 0.0 | 0.00 | 0.03 | 0.00 | 67 | 1020.6 |
| 20260506181532 | 20 | 269 | 0.0 | 0.0 | 0.00 | 0.03 | 0.00 | 68 | 1020.6 |
| 20260506180027 | 20 | 348 | 0.0 | 0.0 | 0.00 | 0.03 | 0.00 | 70 | 1020.7 |
| 20260506174523 | 19 | 248 | 0.0 | 0.0 | 0.00 | 0.03 | 0.00 | 72 | 1020.7 |
| 20260506173021 | 19 | 274 | 0.0 | 0.0 | 0.00 | 0.03 | 0.00 | 73 | 1020.7 |
| 20260506171527 | 18 | 344 | 0.0 | 0.0 | 0.00 | 0.03 | 0.00 | 75 | 1020.7 |
| 20260506170011 | 17 | 335 | 0.0 | 0.0 | 0.00 | 0.03 | 0.00 | 80 | 1020.7 |
| 20260506164506 | 16 | 261 | 0.0 | 0.0 | 0.00 | 0.03 | 0.00 | 82 | 1020.7 |
| 20260506163004 | 15 | 259 | 0.0 | 0.0 | 0.00 | 0.03 | 0.00 | 82 | 1020.7 |
| 20260506161606 | 15 | 255 | 0.0 | 0.0 | 0.00 | 0.03 | 0.00 | 83 | 1020.8 |
| 20260506160058 | 15 | 267 | 0.0 | 0.0 | 0.00 | 0.03 | 0.00 | 83 | 1020.8 |
| 20260506154550 | 15 | 268 | 0.0 | 0.0 | 0.00 | 0.03 | 0.00 | 85 | 1020.9 |
| 20260506153047 | 14 | 239 | 0.0 | 0.0 | 0.00 | 0.03 | 0.00 | 86 | 1020.9 |
| 20260506151600 | 13 | 260 | 0.0 | 0.0 | 0.00 | 0.03 | 0.00 | 87 | 1020.8 |
| 20260506150040 | 13 | 271 | 0.0 | 0.0 | 0.00 | 0.03 | 0.00 | 88 | 1020.9 |
| 20260506144535 | 13 | 244 | 0.0 | 0.0 | 0.00 | 0.03 | 0.00 | 89 | 1020.8 |
| 20260506143043 | 13 | 257 | 0.0 | 0.0 | 0.00 | 0.03 | 0.00 | 89 | 1020.8 |
| 20260506141528 | 13 | 248 | 0.0 | 0.0 | 0.00 | 0.03 | 0.00 | 90 | 1020.6 |
| 20260506140032 | 13 | 244 | 0.0 | 0.0 | 0.00 | 0.03 | 0.00 | 90 | 1020.4 |
| 20260506134521 | 13 | 244 | 0.0 | 0.0 | 0.00 | 0.03 | 0.00 | 90 | 1020.3 |
| 20260506133023 | 13 | 244 | 0.0 | 0.0 | 0.00 | 0.03 | 0.00 | 90 | 1020.2 |
| 20260506131522 | 13 | 220 | 0.0 | 0.0 | 0.00 | 0.03 | 0.00 | 90 | 1020.1 |
| 20260506130016 | 13 | 220 | 0.0 | 0.0 | 0.00 | 0.03 | 0.00 | 90 | 1020.1 |
| 20260506124515 | 13 | 220 | 0.0 | 0.0 | 0.00 | 0.03 | 0.00 | 90 | 1020.0 |
| 20260506123016 | 13 | 199 | 0.0 | 0.0 | 0.00 | 0.03 | 0.00 | 90 | 1019.9 |
| 20260506121512 | 13 | 199 | 0.0 | 0.0 | 0.00 | 0.03 | 0.00 | 91 | 1019.8 |
| 20260506120011 | 13 | 199 | 0.0 | 0.0 | 0.00 | 0.03 | 0.00 | 91 | 1019.6 |
| 20260506114512 | 13 | 187 | 0.0 | 0.0 | 0.00 | 0.03 | 0.00 | 91 | 1019.6 |
| 20260506113010 | 13 | 187 | 0.0 | 0.0 | 0.00 | 0.03 | 0.00 | 90 | 1019.7 |
| 20260506111509 | 13 | 187 | 0.0 | 0.0 | 0.00 | 0.03 | 0.00 | 90 | 1019.7 |
| 20260506110007 | 13 | 187 | 0.0 | 0.0 | 0.00 | 0.03 | 0.00 | 90 | 1019.4 |
| 20260506104504 | 13 | 252 | 0.0 | 0.0 | 0.00 | 0.08 | 0.00 | 90 | 1019.3 |
| 20260506103010 | 13 | 252 | 0.0 | 0.0 | 0.00 | 0.08 | 0.00 | 90 | 1019.2 |
| 20260506101504 | 13 | 264 | 0.0 | 0.0 | 0.00 | 0.08 | 0.00 | 90 | 1019.1 |
| 20260506100003 | 13 | 264 | 0.0 | 0.0 | 0.00 | 0.25 | 0.00 | 90 | 1019.0 |
| 20260506094505 | 13 | 260 | 0.0 | 0.0 | 0.00 | 0.25 | 0.00 | 90 | 1018.9 |
| 20260506093002 | 13 | 260 | 0.0 | 0.0 | 0.00 | 0.25 | 0.00 | 90 | 1019.0 |
| 20260506091503 | 13 | 260 | 0.0 | 0.0 | 0.00 | 0.25 | 0.00 | 90 | 1018.9 |
| 20260506090000 | 13 | 260 | 0.0 | 0.0 | 0.00 | 0.33 | 0.00 | 90 | 1019.0 |
| 20260506084605 | 13 | 260 | 0.0 | 0.0 | 0.00 | 0.33 | 0.00 | 90 | 1019.1 |
| 20260506083100 | 13 | 260 | 0.0 | 0.0 | 0.00 | 0.33 | 0.00 | 90 | 1019.2 |
| 20260506081559 | 13 | 260 | 0.0 | 0.0 | 0.00 | 0.33 | 0.00 | 90 | 1019.3 |
| 20260506073051 | 12 | 264 | 0.0 | 0.0 | 0.00 | 0.36 | 0.00 | 91 | 1018.7 |
| 20260506071604 | 12 | 274 | 0.0 | 0.0 | 0.00 | 0.36 | 0.00 | 90 | 1018.6 |
| 20260506061542 | 13 | 252 | 0.0 | 0.0 | 0.00 | 0.43 | 0.36 | 87 | 1018.1 |
| 20260506044534 | 15 | 252 | 0.0 | 0.0 | 0.00 | 0.46 | 0.36 | 82 | 1017.2 |
| 20260506043031 | 16 | 284 | 0.0 | 0.0 | 0.00 | 0.46 | 0.36 | 83 | 1017.0 |
| 20260506041537 | 16 | 270 | 0.0 | 0.0 | 0.00 | 0.46 | 0.36 | 85 | 1016.8 |
| 20260506040030 | 16 | 251 | 0.0 | 0.0 | 0.00 | 0.46 | 0.36 | 85 | 1016.8 |
| 20260506034527 | 16 | 239 | 0.0 | 0.0 | 0.00 | 0.46 | 0.36 | 85 | 1016.5 |
| 20260506033030 | 16 | 245 | 0.0 | 0.0 | 0.00 | 0.46 | 0.36 | 83 | 1016.3 |
| 20260506031527 | 16 | 225 | 0.0 | 0.0 | 0.00 | 0.46 | 0.36 | 83 | 1016.2 |
| 20260506030025 | 16 | 225 | 0.0 | 0.0 | 0.00 | 0.46 | 0.36 | 81 | 1016.1 |
| 20260506024523 | 17 | 228 | 0.0 | 0.0 | 0.00 | 0.46 | 0.36 | 81 | 1015.8 |
| 20260506023022 | 17 | 228 | 0.0 | 0.0 | 0.00 | 0.46 | 0.36 | 79 | 1015.7 |
| 20260506021522 | 17 | 240 | 0.0 | 0.0 | 0.00 | 0.46 | 0.36 | 78 | 1015.6 |
| 20260506020024 | 17 | 238 | 0.0 | 0.0 | 0.00 | 0.46 | 0.36 | 77 | 1015.5 |
| 20260506014525 | 17 | 274 | 0.0 | 0.0 | 0.00 | 0.46 | 0.36 | 77 | 1015.5 |
| 20260506013026 | 17 | 232 | 0.0 | 0.0 | 0.00 | 0.46 | 0.36 | 75 | 1015.4 |
| 20260506011520 | 18 | 243 | 0.0 | 0.0 | 0.00 | 0.46 | 0.36 | 74 | 1015.4 |
| 20260506010025 | 18 | 234 | 0.0 | 0.0 | 0.00 | 0.46 | 0.36 | 74 | 1015.3 |
| 20260506004528 | 18 | 264 | 0.0 | 0.0 | 0.00 | 0.46 | 0.36 | 74 | 1015.3 |
| 20260506003017 | 19 | 273 | 0.0 | 0.0 | 0.00 | 0.46 | 0.36 | 72 | 1015.3 |
| 20260506001516 | 19 | 245 | 0.0 | 0.0 | 0.00 | 0.46 | 0.36 | 72 | 1015.2 |
| 20260506000019 | 19 | 266 | 0.0 | 0.0 | 0.00 | 0.46 | 0.36 | 73 | 1015.2 |
| 20260505234517 | 19 | 267 | 0.0 | 0.0 | 0.00 | 0.46 | 0.36 | 72 | 1015.1 |
| 20260505233012 | 19 | 271 | 0.0 | 0.0 | 0.00 | 0.46 | 0.36 | 74 | 1015.1 |
| 20260505231510 | 18 | 265 | 0.0 | 0.0 | 0.00 | 0.46 | 0.36 | 74 | 1015.1 |
| 20260505230009 | 17 | 288 | 0.0 | 0.0 | 0.00 | 0.46 | 0.36 | 76 | 1015.2 |
| 20260505224507 | 17 | 231 | 0.0 | 0.0 | 0.00 | 0.46 | 0.36 | 76 | 1015.3 |
| 20260505223103 | 17 | 197 | 0.0 | 0.0 | 0.00 | 0.46 | 0.36 | 76 | 1015.5 |
| 20260505221502 | 17 | 214 | 0.0 | 0.0 | 0.00 | 0.46 | 0.36 | 77 | 1015.6 |
| 20260505220101 | 17 | 267 | 0.0 | 0.0 | 0.00 | 0.46 | 0.36 | 79 | 1015.7 |
| 20260505214607 | 17 | 217 | 0.0 | 0.0 | 0.00 | 0.46 | 0.36 | 82 | 1015.7 |
| 20260505213059 | 16 | 211 | 0.0 | 0.0 | 0.00 | 0.46 | 0.36 | 83 | 1015.8 |